DW8052 Weather Reports


time (UTC)temp
F
wind
direction
speed
knots
gust
knots
rain 1hr
in
rain 24hr
in
rain mn
in
humidity
%
barometer
mb
20260906021213 72 172 10.4 17.4 0.00 0.02 0.00 34 1016.9
20260906020713 72 157 12.2 17.4 0.00 0.02 0.00 34 1016.9
20260906020214 72 151 8.7 15.6 0.00 0.02 0.00 33 1016.8
20260906015714 72 151 5.2 18.2 0.00 0.02 0.00 34 1016.7
20260906014714 72 171 10.4 18.2 0.00 0.02 0.00 33 1016.8
20260906013713 71 186 14.8 20.0 0.00 0.02 0.00 32 1016.7
20260906013213 71 180 10.4 20.0 0.00 0.02 0.00 33 1016.7
20260906012713 72 182 12.2 22.6 0.00 0.02 0.00 33 1016.7
20260906011713 72 179 10.4 18.2 0.00 0.02 0.00 33 1016.8
20260906011213 71 198 8.7 20.0 0.00 0.02 0.00 33 1017.0
20260906010714 71 200 14.8 22.6 0.00 0.02 0.00 33 1016.8
20260906010214 71 215 11.3 18.2 0.00 0.02 0.00 32 1016.9
20260906005714 71 210 9.6 17.4 0.00 0.02 0.00 33 1017.1
20260906005213 71 192 11.3 20.0 0.00 0.02 0.00 33 1016.7
20260906004714 70 203 6.1 13.9 0.00 0.02 0.00 33 1016.7
20260906001714 69 245 10.4 17.4 0.00 0.02 0.00 37 1016.6
20260906001213 68 270 7.8 11.3 0.00 0.02 0.00 38 1016.6
20260905235713 67 267 10.4 17.4 0.00 0.02 0.00 38 1016.3
20260905234713 66 279 8.7 19.1 0.00 0.02 0.00 40 1016.3
20260905234213 66 276 10.4 15.6 0.00 0.02 0.00 39 1016.6
20260905233214 66 288 10.4 15.6 0.00 0.02 0.00 40 1016.3
20260905232713 66 281 7.8 14.8 0.00 0.02 0.00 41 1016.2
20260905232213 65 259 8.7 17.4 0.00 0.02 0.00 42 1016.2
20260905231714 64 269 12.2 18.2 0.00 0.02 0.00 42 1016.1
20260905231213 65 266 17.4 21.7 0.00 0.02 0.00 41 1016.0
20260905230714 64 259 11.3 19.1 0.00 0.02 0.00 43 1016.3
20260905230213 64 258 13.9 18.2 0.00 0.02 0.00 43 1016.0
20260905225213 64 270 13.9 18.2 0.00 0.02 0.00 43 1016.2
20260905224713 63 253 16.5 22.6 0.00 0.02 0.00 43 1016.2
20260905224214 63 280 13.9 20.0 0.00 0.02 0.00 44 1016.0
20260905223713 62 267 15.6 20.9 0.00 0.02 0.00 45 1015.9
20260905223213 62 268 18.2 26.1 0.00 0.02 0.00 45 1015.7
20260905222713 62 279 17.4 22.6 0.00 0.02 0.00 45 1015.6
20260905222213 62 270 19.1 25.2 0.00 0.02 0.00 45 1015.5
20260905221213 62 267 20.9 26.9 0.00 0.02 0.00 45 1015.4
20260905220713 62 256 16.5 25.2 0.00 0.02 0.00 46 1015.2
20260905220214 61 271 18.2 24.3 0.00 0.02 0.00 45 1015.3
20260905215713 61 270 15.6 24.3 0.00 0.02 0.00 46 1015.4
20260905215213 61 270 13.9 24.3 0.00 0.02 0.00 46 1015.5
20260905213713 61 268 13.9 22.6 0.00 0.02 0.00 46 1015.1
20260905213213 61 263 14.8 25.2 0.00 0.02 0.00 46 1014.9
20260905212713 61 270 11.3 20.0 0.00 0.02 0.00 47 1014.7
20260905212213 60 261 14.8 24.3 0.00 0.02 0.00 47 1014.8
20260905211213 60 266 10.4 21.7 0.00 0.02 0.00 48 1014.4
20260905210713 60 275 13.0 31.3 0.00 0.02 0.00 47 1014.3
20260905210213 60 270 22.6 33.0 0.00 0.02 0.00 47 1014.2
20260905205713 60 261 19.1 30.4 0.00 0.02 0.00 47 1014.2
20260905205213 60 267 19.1 28.7 0.00 0.02 0.00 48 1014.2
20260905204712 60 265 15.6 22.6 0.00 0.02 0.00 48 1013.9
20260905204213 60 263 15.6 21.7 0.00 0.02 0.00 49 1013.8
20260905203713 60 263 16.5 25.2 0.00 0.02 0.00 49 1013.8
20260905203214 60 259 15.6 22.6 0.00 0.02 0.00 50 1013.9
20260905202713 59 261 17.4 22.6 0.00 0.02 0.00 49 1013.4
20260905201713 59 264 16.5 20.9 0.00 0.02 0.00 50 1013.7
20260905201213 60 247 13.9 17.4 0.00 0.02 0.00 49 1013.7
20260905200213 60 219 11.3 17.4 0.00 0.02 0.00 48 1013.5
20260905195713 60 214 9.6 14.8 0.00 0.02 0.00 48 1013.6
20260905195213 60 239 10.4 17.4 0.00 0.02 0.00 49 1013.5
20260905194713 60 262 11.3 18.2 0.00 0.02 0.00 48 1013.3
20260905194213 60 249 7.8 15.6 0.00 0.02 0.00 47 1013.1
20260905193713 60 244 12.2 13.9 0.00 0.02 0.00 47 1013.1
20260905192713 60 207 3.5 10.4 0.00 0.02 0.00 47 1013.3
20260905192213 60 186 5.2 10.4 0.00 0.02 0.00 48 1013.3
20260905191713 60 201 8.7 14.8 0.00 0.02 0.00 48 1013.0
20260905191213 60 252 10.4 14.8 0.00 0.02 0.00 47 1012.9
20260905190713 60 276 8.7 22.6 0.00 0.02 0.00 47 1012.3
20260905190213 60 282 14.8 25.2 0.00 0.02 0.00 46 1012.3
20260905185713 60 276 15.6 24.3 0.00 0.02 0.00 46 1012.0
20260905185212 60 274 12.2 20.9 0.00 0.02 0.00 46 1012.5
20260905184713 60 276 12.2 20.9 0.00 0.02 0.00 46 1012.1
20260905183713 61 277 13.9 20.0 0.00 0.02 0.00 45 1011.8
20260905182713 61 261 11.3 19.1 0.00 0.02 0.00 45 1011.7
20260905182212 61 271 15.6 22.6 0.00 0.02 0.00 45 1011.9
20260905181212 61 270 14.8 25.2 0.00 0.02 0.00 44 1011.4
20260905180213 61 272 13.0 21.7 0.00 0.02 0.00 44 1010.9
20260905175713 62 259 15.6 24.3 0.00 0.02 0.00 43 1011.4
20260905174713 62 247 19.1 26.9 0.00 0.02 0.00 42 1011.1
20260905174213 62 248 16.5 25.2 0.00 0.02 0.00 42 1011.1
20260905173713 62 263 15.6 35.6 0.00 0.02 0.00 41 1011.0
20260905173213 62 274 21.7 37.4 0.00 0.02 0.00 41 1010.4
20260905172712 62 269 20.0 35.6 0.00 0.02 0.00 41 1009.9
20260905172212 62 280 20.0 33.0 0.00 0.02 0.00 42 1009.7
20260905171713 62 292 17.4 30.4 0.00 0.02 0.00 42 1009.6
20260905171212 63 280 17.4 28.7 0.00 0.02 0.00 42 1010.0
20260905170212 63 269 18.2 26.9 0.00 0.02 0.00 42 1010.3
20260905165713 63 267 14.8 22.6 0.00 0.02 0.00 42 1010.2
20260905165213 63 280 20.9 26.9 0.00 0.02 0.00 41 1009.9
20260905164712 64 279 15.6 26.9 0.00 0.02 0.00 41 1010.3
20260905164213 64 262 20.0 26.1 0.00 0.02 0.00 41 1010.6
20260905163713 64 277 19.1 25.2 0.00 0.02 0.00 41 1010.7
20260905163212 64 254 12.2 26.1 0.00 0.02 0.00 41 1010.8
20260905162213 65 254 7.8 14.8 0.00 0.02 0.00 42 1011.3
20260905161712 65 254 9.6 14.8 0.00 0.02 0.00 41 1011.1
20260905161212 65 273 8.7 14.8 0.00 0.02 0.00 40 1011.0
20260905160212 65 275 10.4 14.8 0.00 0.02 0.00 39 1010.8
20260905155713 65 272 13.9 19.1 0.00 0.02 0.00 38 1010.8
20260905155212 66 261 10.4 18.2 0.00 0.02 0.00 38 1010.9
20260905154712 66 272 13.9 17.4 0.00 0.02 0.00 38 1010.7
20260905153712 66 265 17.4 25.2 0.00 0.02 0.00 37 1010.9
20260905153212 66 259 18.2 25.2 0.00 0.02 0.00 37 1011.1
20260905152712 66 255 19.1 33.9 0.00 0.02 0.00 37 1011.0
20260905152213 66 262 26.1 39.1 0.00 0.02 0.00 37 1011.0
20260905151713 67 259 21.7 35.6 0.00 0.02 0.00 38 1010.8
20260905151212 67 253 20.9 30.4 0.00 0.02 0.00 39 1010.7
20260905150712 67 258 19.1 30.4 0.00 0.02 0.00 40 1010.6
20260905145712 67 263 20.9 28.7 0.00 0.02 0.00 43 1010.6
20260905145213 67 244 16.5 24.3 0.00 0.02 0.00 46 1010.4
20260905144712 67 242 15.6 20.0 0.00 0.02 0.00 47 1010.3
20260905144212 67 248 13.9 18.2 0.00 0.02 0.00 49 1010.2
20260905143713 68 252 12.2 18.2 0.00 0.02 0.00 48 1010.2
20260905143212 68 252 12.2 18.2 0.00 0.02 0.00 49 1010.0
20260905142713 68 258 10.4 14.8 0.00 0.02 0.00 49 1009.8
20260905142212 68 251 11.3 14.8 0.00 0.02 0.00 49 1009.7
20260905141712 68 261 11.3 14.8 0.00 0.02 0.00 49 1009.7
20260905141213 68 261 11.3 15.6 0.00 0.02 0.00 49 1009.5
20260905140713 68 262 14.8 20.0 0.00 0.02 0.00 49 1009.4
20260905140212 68 262 13.9 18.2 0.00 0.02 0.00 49 1009.3
20260905135712 68 262 14.8 20.0 0.00 0.02 0.02 49 1009.3
20260905135212 68 268 14.8 20.0 0.00 0.02 0.02 49 1009.1
20260905134212 68 259 17.4 22.6 0.00 0.02 0.02 50 1009.1
20260905133712 68 257 17.4 22.6 0.00 0.02 0.02 51 1009.0
20260905133213 68 256 15.6 22.6 0.00 0.02 0.02 52 1008.7
20260905132712 68 254 13.9 17.4 0.00 0.02 0.02 52 1008.8
20260905132212 68 253 12.2 15.6 0.00 0.02 0.02 53 1009.1
20260905131712 68 257 12.2 14.8 0.00 0.02 0.02 53 1008.9
20260905130712 68 259 10.4 13.9 0.00 0.02 0.02 53 1008.9
20260905130212 68 265 10.4 13.9 0.00 0.02 0.02 53 1008.8
20260905125712 68 266 11.3 14.8 0.00 0.02 0.02 53 1008.7
20260905124713 68 261 11.3 15.6 0.00 0.02 0.02 54 1008.8
20260905124212 68 262 8.7 13.0 0.00 0.02 0.02 55 1009.0
20260905123712 68 268 10.4 13.0 0.00 0.02 0.02 56 1008.9
20260905122712 68 250 9.6 14.8 0.00 0.02 0.02 58 1008.7
20260905122212 68 232 9.6 15.6 0.00 0.02 0.02 57 1008.9
20260905121712 69 222 4.3 7.8 0.00 0.02 0.02 56 1008.9
20260905121212 69 247 6.1 8.7 0.00 0.02 0.02 55 1008.5
20260905120713 69 245 5.2 7.0 0.00 0.02 0.02 55 1008.6
20260905120212 69 268 4.3 7.0 0.00 0.02 0.02 54 1008.4
20260905115712 70 267 4.3 6.1 0.00 0.02 0.02 53 1008.2
20260905115212 70 283 5.2 10.4 0.00 0.02 0.02 53 1008.2
20260905114712 70 304 7.8 11.3 0.00 0.02 0.02 53 1008.2
20260905113712 70 303 8.7 13.0 0.00 0.02 0.02 52 1008.1
20260905113212 70 303 10.4 13.0 0.00 0.02 0.02 53 1008.2
20260905112712 70 304 11.3 17.4 0.00 0.02 0.02 52 1008.3
20260905112212 70 304 12.2 13.9 0.00 0.02 0.02 53 1008.2
20260905111712 70 308 12.2 13.9 0.00 0.02 0.02 53 1008.1
20260905111212 70 304 9.6 15.6 0.00 0.02 0.02 53 1008.2
20260905110713 71 313 12.2 15.6 0.00 0.02 0.02 53 1008.3
20260905105712 71 317 11.3 14.8 0.00 0.02 0.02 52 1008.0
20260905105212 71 320 12.2 14.8 0.00 0.02 0.02 52 1008.0
20260905104712 71 319 13.0 17.4 0.00 0.02 0.02 52 1008.0
20260905102712 72 327 14.8 17.4 0.00 0.02 0.02 49 1008.1
20260905102212 72 310 13.9 17.4 0.00 0.02 0.02 49 1008.1
20260905101712 72 317 13.9 18.2 0.00 0.02 0.02 48 1008.0
20260905101212 72 314 13.9 19.1 0.00 0.02 0.02 48 1007.9
20260905100712 72 318 14.8 18.2 0.00 0.02 0.02 47 1007.8
20260905100212 72 310 13.0 17.4 0.00 0.02 0.02 47 1008.0
20260905095212 72 315 12.2 17.4 0.00 0.02 0.02 47 1007.7
20260905094712 73 308 11.3 18.2 0.00 0.02 0.02 47 1007.8
20260905094212 73 308 11.3 18.2 0.00 0.02 0.02 46 1007.8
20260905093712 73 310 12.2 17.4 0.00 0.02 0.02 46 1007.7
20260905092712 73 311 13.0 17.4 0.00 0.02 0.02 46 1007.7
20260905092212 73 305 12.2 17.4 0.00 0.02 0.02 46 1007.8
20260905090712 73 316 13.9 21.7 0.00 0.02 0.02 46 1007.9
20260905090211 73 309 14.8 20.0 0.00 0.02 0.02 46 1007.7
20260905085712 73 312 17.4 22.6 0.00 0.02 0.02 46 1007.8
20260905084212 71 320 14.8 22.6 0.00 0.02 0.02 52 1007.5
20260905083711 71 331 14.8 18.2 0.00 0.02 0.02 54 1007.6
20260905083212 71 331 13.9 20.0 0.00 0.02 0.02 55 1007.8
20260905082712 71 315 13.9 19.1 0.00 0.02 0.02 55 1008.1
20260905082212 70 320 17.4 26.9 0.00 0.02 0.02 56 1007.7
20260905081711 70 345 12.2 17.4 0.00 0.02 0.02 59 1008.2
20260905081211 70 334 11.3 15.6 0.00 0.02 0.02 60 1008.2
20260905080712 70 317 12.2 17.4 0.00 0.02 0.02 60 1008.5
20260905080211 70 311 13.9 15.6 0.00 0.02 0.02 60 1008.4
20260905075712 69 322 12.2 15.6 0.00 0.02 0.02 60 1008.4
20260905075212 69 316 10.4 13.9 0.00 0.02 0.02 61 1008.6
20260905074712 69 297 8.7 13.9 0.00 0.02 0.02 61 1008.6
20260905073711 70 329 13.9 19.1 0.00 0.02 0.02 59 1008.3
20260905073212 70 337 12.2 18.2 0.01 0.02 0.02 58 1008.1
20260905072212 70 300 11.3 19.1 0.02 0.02 0.02 59 1008.3
20260905071711 70 282 16.5 25.2 0.02 0.02 0.02 59 1009.0
20260905071212 70 274 17.4 24.3 0.02 0.02 0.02 60 1009.2
20260905070712 69 278 14.8 22.6 0.02 0.02 0.02 62 1009.5
20260905065712 69 278 13.9 17.4 0.02 0.02 0.02 62 1008.9
20260905064211 70 282 17.4 26.1 0.02 0.02 0.02 60 1008.9
20260905063711 71 287 13.9 28.7 0.02 0.02 0.02 58 1008.7
20260905063211 73 278 26.1 33.9 0.01 0.01 0.01 53 1009.5
20260905062712 75 270 31.3 42.6 0.00 0.00 0.00 46 1009.3
20260905061711 79 255 33.9 47.8 0.00 0.00 0.00 36 1008.7
20260905061211 80 249 39.1 53.0 0.00 0.00 0.00 33 1008.4
20260905060711 82 237 32.2 41.7 0.00 0.00 0.00 32 1007.9
20260905055711 84 276 19.1 32.2 0.00 0.00 0.00 27 1007.2
20260905055211 84 286 18.2 32.2 0.00 0.00 0.00 27 1007.1
20260905054711 85 274 17.4 27.8 0.00 0.00 0.00 27 1006.6
20260905054211 85 277 24.3 32.2 0.00 0.00 0.00 27 1006.4
20260905053711 85 275 30.4 42.6 0.00 0.00 0.00 26 1006.2
20260905053211 85 280 22.6 37.4 0.00 0.00 0.00 26 1005.7
20260905052211 85 270 29.5 41.7 0.00 0.00 0.00 26 1005.6
20260905051711 85 271 28.7 41.7 0.00 0.00 0.00 26 1005.4
20260905051211 85 278 25.2 40.0 0.00 0.00 0.00 25 1005.6
20260905050711 85 271 25.2 41.7 0.00 0.00 0.00 25 1005.5
20260905050211 86 263 30.4 40.8 0.00 0.00 0.00 25 1005.3
20260905045711 86 275 22.6 40.0 0.00 0.00 0.00 24 1005.4
20260905045211 86 274 26.1 35.6 0.00 0.00 0.00 24 1005.4
20260905044711 86 269 20.0 33.9 0.00 0.00 0.00 24 1005.3
20260905044212 87 261 18.2 27.8 0.00 0.00 0.00 24 1005.2
20260905043711 87 270 20.0 39.1 0.00 0.00 0.00 22 1005.2
20260905042711 86 275 12.2 18.2 0.00 0.00 0.00 27 1005.5
20260905042211 86 301 14.8 19.1 0.00 0.00 0.00 26 1005.2
20260905041711 86 318 13.9 22.6 0.00 0.00 0.00 27 1005.1
20260905041211 86 328 15.6 22.6 0.00 0.00 0.00 27 1005.0
20260905040211 85 335 14.8 20.9 0.00 0.00 0.00 27 1005.3
20260905035711 85 329 13.9 21.7 0.00 0.00 0.00 28 1005.2
20260905035210 84 340 13.0 20.9 0.00 0.00 0.00 27 1005.5
20260905034711 84 338 17.4 26.1 0.00 0.00 0.00 27 1005.4
20260905034211 84 346 13.9 25.2 0.00 0.00 0.00 27 1005.6
20260905033711 84 334 11.3 22.6 0.00 0.00 0.00 28 1005.7
20260905033210 83 343 12.2 21.7 0.00 0.00 0.00 28 1005.8
20260905032211 83 354 16.5 25.2 0.00 0.00 0.00 28 1006.2
20260905031710 83 345 20.0 34.8 0.00 0.00 0.00 28 1006.4
20260905031211 82 347 16.5 34.8 0.00 0.00 0.00 29 1006.5
20260905030211 82 337 20.9 27.8 0.00 0.00 0.00 28 1006.9
20260905024711 81 339 10.4 17.4 0.00 0.00 0.00 32 1007.2
20260905024211 81 0 13.9 22.6 0.00 0.00 0.00 31 1007.5
20260905023710 81 341 14.8 26.9 0.00 0.00 0.00 30 1007.7
20260905023211 81 348 10.4 24.3 0.00 0.00 0.00 31 1008.0
20260905022711 81 335 10.4 14.8 0.00 0.00 0.00 32 1008.2
20260905022211 81 345 13.9 20.0 0.00 0.00 0.00 31 1008.3
20260905021711 81 341 14.8 21.7 0.00 0.00 0.00 30 1008.7